Location: Deurze
(52.9838°N, 6.6090°E)
Time: 19:27:39
(UTC+00:00)

CENTAUR R/B - Pass Details

Date: 11 March 2026
Orbit: 625 x 1555 km, 63.4° (Epoch: 20 April)

Event Time Altitude Azimuth Distance (km) Brightness Sun altitude
Rises 18:49:49 0° 240° (WSW) 3,346 6.1 -12.7°
Reaches altitude 10° 18:52:03 10° 244° (WSW) 2,525 5.5 -13.0°
Maximum altitude 18:57:56 64° 326° (NW) 1,133 3.0 -13.9°
Drops below altitude 10° 19:05:29 10° 48° (NE) 3,204 4.9 -15.0°
Sets 19:08:39 0° 51° (NE) 4,313 5.5 -15.5°
